Location: River House Observatory
(37.8577°N, 76.3548°W)
Time: 19:36:03
(UTC-04:00)

Hubble Space Telescope - Pass Details

Date: 23 January 2018
Orbit: 537 x 541 km, 28.5° (Epoch: 27 May)

Event Time Altitude Azimuth Distance (km) Brightness Sun altitude
Rises 18:54:11 0° 222° (SW) 2,665 5.2 -18.8°
Reaches altitude 10° 18:57:20 10° 197° (SSW) 1,776 3.7 -19.4°
Maximum altitude 18:59:32 14° 164° (SSE) 1,531 3.0 -19.8°
Enters shadow 19:00:05 14° 156° (SSE) 1,548 2.9 -19.9°
